TimeEDT,TemperatureF,Dew PointF,Humidity,Sea Level PressureIn,VisibilityMPH,Wind Direction,Wind SpeedMPH,Gust SpeedMPH,PrecipitationIn,Events,Conditions,WindDirDegrees,DateUTC
12:15 AM,53.2,49.5,87,29.82,10.0,SSW,5.8,-,N/A,Rain,Light Rain,200,2013-10-07 04:15:00
12:35 AM,53.4,49.8,88,29.81,7.0,SSW,5.8,-,N/A,Rain,Rain,210,2013-10-07 04:35:00
12:55 AM,53.6,50.0,88,29.83,5.0,SSW,11.5,-,N/A,Rain,Rain,210,2013-10-07 04:55:00
1:15 AM,53.2,49.6,88,29.82,7.0,SW,6.9,-,N/A,Rain,Rain,220,2013-10-07 05:15:00
1:35 AM,52.9,49.3,88,29.80,7.0,SW,5.8,-,N/A,Rain,Rain,230,2013-10-07 05:35:00
1:55 AM,53.1,49.6,88,29.83,10.0,SSW,9.2,-,N/A,Rain,Rain,200,2013-10-07 05:55:00
2:15 AM,53.6,50.0,88,29.82,7.0,SSW,6.9,-,N/A,Rain,Rain,200,2013-10-07 06:15:00
2:35 AM,53.6,50.0,88,29.81,7.0,SSW,8.1,-,N/A,Rain,Rain,210,2013-10-07 06:35:00
2:55 AM,53.2,49.1,86,29.82,10.0,West,15.0,21.9,N/A,Rain,Light Rain,270,2013-10-07 06:55:00
3:15 AM,52.7,44.6,74,29.84,10.0,West,8.1,-,N/A,,Overcast,270,2013-10-07 07:15:00
3:35 AM,52.7,44.6,74,29.83,10.0,West,9.2,-,N/A,,Overcast,260,2013-10-07 07:35:00
3:55 AM,52.2,43.7,73,29.83,10.0,West,10.4,-,N/A,,Overcast,260,2013-10-07 07:55:00
4:15 AM,51.6,42.6,71,29.83,10.0,WSW,8.1,-,N/A,,Overcast,250,2013-10-07 08:15:00
4:35 AM,51.1,42.3,72,29.84,10.0,West,8.1,-,N/A,,Overcast,260,2013-10-07 08:35:00
4:55 AM,50.7,41.4,70,29.84,10.0,West,5.8,-,N/A,,Mostly Cloudy,270,2013-10-07 08:55:00
5:15 AM,50.2,41.7,73,29.85,10.0,WSW,5.8,-,N/A,,Mostly Cloudy,250,2013-10-07 09:15:00
5:35 AM,48.7,41.9,77,29.86,10.0,WSW,4.6,-,N/A,,Scattered Clouds,240,2013-10-07 09:35:00
5:55 AM,48.0,42.4,81,29.86,10.0,SW,6.9,-,N/A,,Clear,220,2013-10-07 09:55:00
6:15 AM,48.0,43.2,83,29.87,10.0,SW,6.9,-,N/A,,Clear,220,2013-10-07 10:15:00
6:35 AM,48.2,43.0,82,29.86,10.0,SW,5.8,-,N/A,,Clear,220,2013-10-07 10:35:00
6:55 AM,48.2,42.8,82,29.86,10.0,SSW,5.8,-,N/A,,Clear,200,2013-10-07 10:55:00
7:15 AM,47.7,42.6,83,29.87,10.0,SW,4.6,-,N/A,,Clear,220,2013-10-07 11:15:00
7:35 AM,46.9,42.1,83,29.88,10.0,SSW,6.9,-,N/A,,Clear,210,2013-10-07 11:35:00
7:55 AM,46.8,42.1,84,29.88,10.0,South,5.8,-,N/A,,Clear,190,2013-10-07 11:55:00
8:15 AM,47.3,42.3,83,29.88,10.0,South,5.8,-,N/A,,Scattered Clouds,190,2013-10-07 12:15:00
8:35 AM,48.9,43.0,80,29.89,10.0,SSW,8.1,-,N/A,,Mostly Cloudy,210,2013-10-07 12:35:00
8:55 AM,49.1,43.0,79,29.90,10.0,SSW,6.9,-,N/A,,Overcast,210,2013-10-07 12:55:00
9:15 AM,49.6,43.2,78,29.90,10.0,SSW,8.1,-,N/A,,Overcast,210,2013-10-07 13:15:00
9:35 AM,50.2,43.5,78,29.91,10.0,SSW,9.2,-,N/A,,Overcast,210,2013-10-07 13:35:00
9:55 AM,51.4,43.7,75,29.91,10.0,SSW,9.2,-,N/A,,Overcast,210,2013-10-07 13:55:00
10:15 AM,52.3,44.2,74,29.92,10.0,SW,10.4,17.3,N/A,,Overcast,230,2013-10-07 14:15:00
10:35 AM,53.6,43.9,70,29.92,10.0,WSW,12.7,23.0,N/A,,Overcast,240,2013-10-07 14:35:00
10:55 AM,54.1,43.5,67,29.93,10.0,WSW,12.7,20.7,N/A,,Overcast,250,2013-10-07 14:55:00
11:15 AM,54.3,43.9,68,29.94,10.0,WSW,15.0,23.0,N/A,,Overcast,240,2013-10-07 15:15:00
11:35 AM,54.7,44.1,67,29.94,10.0,WSW,12.7,-,N/A,,Overcast,250,2013-10-07 15:35:00
11:55 AM,55.0,43.9,66,29.95,10.0,West,11.5,21.9,N/A,,Overcast,260,2013-10-07 15:55:00
12:15 PM,54.3,43.5,67,29.95,10.0,WSW,16.1,20.7,N/A,,Overcast,250,2013-10-07 16:15:00
12:35 PM,54.7,43.5,66,29.96,10.0,WSW,11.5,16.1,N/A,,Overcast,250,2013-10-07 16:35:00
12:55 PM,55.2,43.7,65,29.96,10.0,WSW,12.7,16.1,N/A,,Overcast,250,2013-10-07 16:55:00
1:15 PM,57.6,44.4,62,29.95,10.0,West,11.5,20.7,N/A,,Overcast,280,2013-10-07 17:15:00
1:35 PM,58.1,41.9,55,29.96,10.0,West,13.8,18.4,N/A,,Overcast,260,2013-10-07 17:35:00
1:55 PM,59.5,40.6,50,29.96,10.0,West,15.0,18.4,N/A,,Mostly Cloudy,260,2013-10-07 17:55:00
2:15 PM,60.6,40.3,47,29.96,10.0,West,11.5,19.6,N/A,,Scattered Clouds,270,2013-10-07 18:15:00
2:35 PM,59.7,40.1,48,29.96,10.0,West,17.3,24.2,N/A,,Mostly Cloudy,280,2013-10-07 18:35:00
2:55 PM,60.6,39.4,45,29.97,10.0,West,12.7,19.6,N/A,,Mostly Cloudy,260,2013-10-07 18:55:00
3:15 PM,62.1,39.2,43,29.97,10.0,West,15.0,-,N/A,,Mostly Cloudy,260,2013-10-07 19:15:00
3:35 PM,62.1,38.3,41,29.98,10.0,West,13.8,-,N/A,,Mostly Cloudy,260,2013-10-07 19:35:00
3:55 PM,62.6,38.1,40,29.98,10.0,West,12.7,-,N/A,,Scattered Clouds,260,2013-10-07 19:55:00
4:15 PM,62.8,37.8,40,29.98,10.0,WSW,13.8,19.6,N/A,,Mostly Cloudy,250,2013-10-07 20:15:00
4:35 PM,63.1,37.4,39,29.99,10.0,West,10.4,17.3,N/A,,Scattered Clouds,280,2013-10-07 20:35:00
4:55 PM,62.1,37.6,40,29.99,10.0,WNW,9.2,-,N/A,,Scattered Clouds,290,2013-10-07 20:55:00
5:15 PM,61.5,38.1,42,30.00,10.0,West,12.7,17.3,N/A,,Mostly Cloudy,280,2013-10-07 21:15:00
5:35 PM,61.3,38.7,43,30.01,10.0,West,11.5,-,N/A,,Overcast,270,2013-10-07 21:35:00
5:55 PM,60.6,39.0,45,30.02,10.0,West,11.5,-,N/A,,Overcast,260,2013-10-07 21:55:00
6:15 PM,60.1,39.6,47,30.03,10.0,West,8.1,-,N/A,,Overcast,270,2013-10-07 22:15:00
6:35 PM,59.9,40.3,48,30.03,10.0,West,9.2,-,N/A,,Overcast,270,2013-10-07 22:35:00
6:55 PM,59.7,40.1,48,30.05,10.0,West,6.9,-,N/A,,Overcast,270,2013-10-07 22:55:00
7:15 PM,59.2,40.8,51,30.06,10.0,West,6.9,-,N/A,,Overcast,270,2013-10-07 23:15:00
7:35 PM,58.6,42.1,54,30.06,10.0,WSW,3.5,-,N/A,,Overcast,250,2013-10-07 23:35:00
7:55 PM,58.1,43.3,58,30.07,10.0,West,4.6,-,N/A,,Overcast,260,2013-10-07 23:55:00
8:15 PM,57.9,43.5,59,30.08,10.0,West,4.6,-,N/A,,Overcast,260,2013-10-08 00:15:00
8:35 PM,57.2,43.9,61,30.08,10.0,West,4.6,-,N/A,,Overcast,260,2013-10-08 00:35:00
8:55 PM,56.7,43.9,62,30.09,10.0,Calm,Calm,-,N/A,,Overcast,0,2013-10-08 00:55:00
9:15 PM,56.1,44.1,64,30.11,10.0,West,3.5,-,N/A,,Overcast,270,2013-10-08 01:15:00
9:35 PM,55.6,43.7,64,30.12,10.0,Calm,Calm,-,N/A,,Scattered Clouds,0,2013-10-08 01:35:00
9:55 PM,55.2,43.7,65,30.13,10.0,Calm,Calm,-,N/A,,Clear,0,2013-10-08 01:55:00
10:15 PM,54.7,43.5,66,30.14,10.0,Calm,Calm,-,N/A,,Clear,0,2013-10-08 02:15:00
10:35 PM,53.6,43.7,69,30.15,10.0,West,4.6,-,N/A,,Mostly Cloudy,280,2013-10-08 02:35:00
10:55 PM,53.4,43.3,69,30.15,10.0,WNW,3.5,-,N/A,,Scattered Clouds,300,2013-10-08 02:55:00
11:15 PM,52.9,44.1,72,30.16,10.0,NW,3.5,-,N/A,,Clear,310,2013-10-08 03:15:00
11:35 PM,52.7,44.1,72,30.16,10.0,Calm,Calm,-,N/A,,Clear,0,2013-10-08 03:35:00
11:55 PM,51.6,43.7,74,30.17,10.0,NW,3.5,-,N/A,,Clear,310,2013-10-08 03:55:00